,,,PA_Meas_PMT16A,,PR_Meas_QMR101_102,,RH_Meas_QMH101,,SR_Meas_QMS101,,TA_Meas_QMH101,,GenWind,,GenWind,
date,time,status,PA,status,PR,status,RH,status,SR,status,TA,status,DirAvg,status,SpdAvg,
2012-06-20, 00:00:04,VALID,1011,VALID,0,VALID,104,VALID,0,VALID,24.1032,VALID,320,VALID,0,
2012-06-20, 00:01:04,VALID,1011,VALID,0,VALID,104,VALID,0,VALID,24.1227,VALID,320,VALID,0,
2012-06-20, 00:02:04,VALID,1011,VALID,0,VALID,104,VALID,0,VALID,24.1245,VALID,320,VALID,0,
2012-06-20, 00:03:04,VALID,1010.99,VALID,0,VALID,104,VALID,0,VALID,24.0643,VALID,320,VALID,0,
2012-06-20, 00:04:04,VALID,1011.01,VALID,0,VALID,104,VALID,0,VALID,24.0643,VALID,320,VALID,0,
2012-06-20, 00:05:04,VALID,1010.99,VALID,0,VALID,104,VALID,0,VALID,24.0448,VALID,320,VALID,0,
2012-06-20, 00:06:04,VALID,1010.97,VALID,0,VALID,104,VALID,0,VALID,24.0856,VALID,320,VALID,0,
2012-06-20, 00:07:04,VALID,1010.95,VALID,0,VALID,104,VALID,0,VALID,24.0856,VALID,320,VALID,0,
2012-06-20, 00:08:04,VALID,1010.99,VALID,0,VALID,104,VALID,0,VALID,24.0856,VALID,320,VALID,0,
2012-06-20, 00:09:04,VALID,1010.94,VALID,0,VALID,104,VALID,0.112112,VALID,24.0643,VALID,320,VALID,0,
2012-06-20, 00:10:04,VALID,1010.94,VALID,0,VALID,104,VALID,0,VALID,24.0235,VALID,320,VALID,0,
2012-06-20, 00:11:04,VALID,1010.93,VALID,0,VALID,104,VALID,0,VALID,24.004,VALID,320,VALID,0,
2012-06-20, 00:12:04,VALID,1010.95,VALID,0,VALID,104,VALID,0,VALID,24.0253,VALID,320,VALID,0,
2012-06-20, 00:13:04,VALID,1010.93,VALID,0,VALID,104,VALID,0,VALID,23.9845,VALID,320,VALID,0,
2012-06-20, 00:14:04,VALID,1010.92,VALID,0,VALID,104,VALID,0,VALID,23.9455,VALID,320,VALID,0,
2012-06-20, 00:15:04,VALID,1010.89,VALID,0,VALID,104,VALID,0,VALID,23.9455,VALID,320,VALID,0,
2012-06-20, 00:16:04,VALID,1010.88,VALID,0,VALID,104,VALID,0,VALID,23.9455,VALID,320,VALID,0,
2012-06-20, 00:17:04,VALID,1010.9,VALID,0,VALID,104,VALID,0.112112,VALID,24.0058,VALID,320,VALID,0,
2012-06-20, 00:18:04,VALID,1010.9,VALID,0,VALID,104,VALID,0.112112,VALID,23.9863,VALID,320,VALID,0,
2012-06-20, 00:19:04,VALID,1010.88,VALID,0,VALID,104,VALID,0,VALID,23.9845,VALID,320,VALID,0,
2012-06-20, 00:20:04,VALID,1010.89,VALID,0,VALID,104,VALID,0,VALID,23.9845,VALID,320,VALID,0,
2012-06-20, 00:21:04,VALID,1010.92,VALID,0,VALID,104,VALID,0,VALID,23.9863,VALID,320,VALID,0,
2012-06-20, 00:22:04,VALID,1010.93,VALID,0,VALID,104,VALID,0,VALID,23.965,VALID,320,VALID,0,
2012-06-20, 00:23:04,VALID,1010.93,VALID,0,VALID,104,VALID,0,VALID,23.965,VALID,320,VALID,0,
2012-06-20, 00:24:04,VALID,1010.94,VALID,0,VALID,104,VALID,0,VALID,23.9863,VALID,320,VALID,0,
2012-06-20, 00:25:04,VALID,1010.92,VALID,0,VALID,104,VALID,0,VALID,24.004,VALID,320,VALID,0,
2012-06-20, 00:26:04,VALID,1010.94,VALID,0,VALID,104,VALID,0,VALID,24.0429,VALID,320,VALID,0,
2012-06-20, 00:27:04,VALID,1010.87,VALID,0,VALID,104,VALID,0,VALID,24.0429,VALID,320,VALID,0,
2012-06-20, 00:28:04,VALID,1010.86,VALID,0,VALID,104,VALID,0,VALID,24.0643,VALID,320,VALID,0,
2012-06-20, 00:29:04,VALID,1010.83,VALID,0,VALID,104,VALID,0,VALID,24.0448,VALID,320,VALID,0,
2012-06-20, 00:30:04,VALID,1010.81,VALID,0,VALID,104,VALID,0.112112,VALID,24.0448,VALID,320,VALID,0,
2012-06-20, 00:31:04,VALID,1010.78,VALID,0,VALID,104,VALID,0,VALID,23.965,VALID,320,VALID,0,
2012-06-20, 00:32:04,VALID,1010.77,VALID,0,VALID,104,VALID,0.112112,VALID,23.926,VALID,320,VALID,0,
2012-06-20, 00:33:04,VALID,1010.77,VALID,0,VALID,104,VALID,0,VALID,23.9278,VALID,320,VALID,0,
2012-06-20, 00:34:04,VALID,1010.76,VALID,0,VALID,104,VALID,0,VALID,23.8871,VALID,320,VALID,0,
2012-06-20, 00:35:04,VALID,1010.76,VALID,0,VALID,104,VALID,0.112112,VALID,23.8871,VALID,320,VALID,0,
2012-06-20, 00:36:04,VALID,1010.73,VALID,0,VALID,104,VALID,0.112112,VALID,23.8694,VALID,320,VALID,0,
2012-06-20, 00:37:04,VALID,1010.69,VALID,0,VALID,104,VALID,0,VALID,23.8499,VALID,320,VALID,0,
2012-06-20, 00:38:04,VALID,1010.67,VALID,0,VALID,104,VALID,0.112112,VALID,23.8304,VALID,320,VALID,0,
2012-06-20, 00:39:04,VALID,1010.65,VALID,0,VALID,104,VALID,0,VALID,23.8322,VALID,320,VALID,0,
2012-06-20, 00:40:04,VALID,1010.66,VALID,0,VALID,104,VALID,0,VALID,23.8109,VALID,320,VALID,0,
2012-06-20, 00:41:04,VALID,1010.66,VALID,0,VALID,104,VALID,0,VALID,23.7914,VALID,320,VALID,0,
2012-06-20, 00:42:04,VALID,1010.63,VALID,0,VALID,104,VALID,0,VALID,23.772,VALID,320,VALID,0,
2012-06-20, 00:43:04,VALID,1010.64,VALID,0,VALID,104,VALID,0,VALID,23.7525,VALID,320,VALID,0,
2012-06-20, 00:44:04,VALID,1010.61,VALID,0,VALID,104,VALID,0,VALID,23.733,VALID,320,VALID,0,
2012-06-20, 00:45:04,VALID,1010.62,VALID,0,VALID,104,VALID,0,VALID,23.733,VALID,320,VALID,0,
2012-06-20, 00:46:04,VALID,1010.6,VALID,0,VALID,104,VALID,0,VALID,23.7135,VALID,320,VALID,0,
2012-06-20, 00:47:04,VALID,1010.62,VALID,0,VALID,104,VALID,0,VALID,23.733,VALID,320,VALID,0,
2012-06-20, 00:48:04,VALID,1010.6,VALID,0,VALID,104,VALID,0,VALID,23.694,VALID,320,VALID,0,
2012-06-20, 00:49:04,VALID,1010.59,VALID,0,VALID,104,VALID,0,VALID,23.6745,VALID,320,VALID,0,
2012-06-20, 00:50:04,VALID,1010.57,VALID,0,VALID,104,VALID,0,VALID,23.6745,VALID,320,VALID,0,
2012-06-20, 00:51:04,VALID,1010.57,VALID,0,VALID,104,VALID,0,VALID,23.694,VALID,320,VALID,0,
2012-06-20, 00:52:04,VALID,1010.56,VALID,0,VALID,104,VALID,0,VALID,23.7153,VALID,320,VALID,0,
2012-06-20, 00:53:04,VALID,1010.55,VALID,0,VALID,104,VALID,0,VALID,23.6763,VALID,320,VALID,0,
2012-06-20, 00:54:04,VALID,1010.55,VALID,0,VALID,104,VALID,0,VALID,23.6356,VALID,320,VALID,0,
2012-06-20, 00:55:04,VALID,1010.54,VALID,0,VALID,104,VALID,0,VALID,23.6161,VALID,320,VALID,0,
2012-06-20, 00:56:04,VALID,1010.51,VALID,0,VALID,104,VALID,0,VALID,23.5966,VALID,320,VALID,0,
2012-06-20, 00:57:04,VALID,1010.51,VALID,0,VALID,104,VALID,0,VALID,23.6161,VALID,320,VALID,0,
2012-06-20, 00:58:04,VALID,1010.51,VALID,0,VALID,104,VALID,0,VALID,23.5966,VALID,320,VALID,0,
2012-06-20, 00:59:04,VALID,1010.49,VALID,0,VALID,104,VALID,0,VALID,23.5984,VALID,320,VALID,0,
2012-06-20, 01:00:04,VALID,1010.47,VALID,0,VALID,104,VALID,0,VALID,23.5576,VALID,320,VALID,0,
2012-06-20, 01:01:04,VALID,1010.49,VALID,0,VALID,104,VALID,0,VALID,23.5381,VALID,320,VALID,0,
2012-06-20, 01:02:04,VALID,1010.51,VALID,0,VALID,104,VALID,0,VALID,23.5381,VALID,320,VALID,0,
2012-06-20, 01:03:04,VALID,1010.49,VALID,0,VALID,104,VALID,0,VALID,23.5381,VALID,320,VALID,0,
2012-06-20, 01:04:04,VALID,1010.47,VALID,0,VALID,104,VALID,0,VALID,23.5381,VALID,320,VALID,0,
2012-06-20, 01:05:04,VALID,1010.44,VALID,0,VALID,104,VALID,0,VALID,23.5186,VALID,320,VALID,0,
2012-06-20, 01:06:04,VALID,1010.39,VALID,0,VALID,104,VALID,0,VALID,23.5186,VALID,320,VALID,0,
2012-06-20, 01:07:04,VALID,1010.35,VALID,0,VALID,104,VALID,0,VALID,23.5399,VALID,320,VALID,0,
2012-06-20, 01:08:04,VALID,1010.34,VALID,0,VALID,104,VALID,0,VALID,23.5381,VALID,320,VALID,0,
2012-06-20, 01:09:04,VALID,1010.28,VALID,0,VALID,104,VALID,0,VALID,23.5363,VALID,320,VALID,0,
2012-06-20, 01:10:04,VALID,1010.27,VALID,0,VALID,104,VALID,0,VALID,23.5576,VALID,320,VALID,0,
2012-06-20, 01:11:04,VALID,1010.25,VALID,0,VALID,104,VALID,0,VALID,23.5363,VALID,320,VALID,0,
2012-06-20, 01:12:04,VALID,1010.22,VALID,0,VALID,104,VALID,0,VALID,23.5558,VALID,320,VALID,0,
2012-06-20, 01:13:04,VALID,1010.19,VALID,0,VALID,104,VALID,0,VALID,23.6161,VALID,320,VALID,0,
2012-06-20, 01:14:04,VALID,1010.18,VALID,0,VALID,104,VALID,0,VALID,23.5948,VALID,320,VALID,0,
2012-06-20, 01:15:04,VALID,1010.17,VALID,0,VALID,104,VALID,0,VALID,23.6143,VALID,320,VALID,0,
2012-06-20, 01:16:04,VALID,1010.17,VALID,0,VALID,104,VALID,0,VALID,23.6338,VALID,320,VALID,0,
2012-06-20, 01:17:04,VALID,1010.19,VALID,0,VALID,104,VALID,0,VALID,23.6143,VALID,320,VALID,0,
2012-06-20, 01:18:04,VALID,1010.16,VALID,0,VALID,104,VALID,0.112112,VALID,23.6356,VALID,320,VALID,0,
2012-06-20, 01:19:04,VALID,1010.16,VALID,0,VALID,104,VALID,0.112112,VALID,23.6143,VALID,320,VALID,0,
2012-06-20, 01:20:04,VALID,1010.18,VALID,0,VALID,104,VALID,0,VALID,23.6356,VALID,320,VALID,0,
2012-06-20, 01:21:04,VALID,1010.15,VALID,0,VALID,104,VALID,0,VALID,23.6143,VALID,320,VALID,0,
2012-06-20, 01:22:04,VALID,1010.17,VALID,0,VALID,104,VALID,0.112112,VALID,23.6338,VALID,320,VALID,0,
2012-06-20, 01:23:04,VALID,1010.15,VALID,0,VALID,104,VALID,0.112112,VALID,23.6532,VALID,320,VALID,0,
2012-06-20, 01:24:04,VALID,1010.17,VALID,0,VALID,104,VALID,0,VALID,23.6356,VALID,320,VALID,0,
2012-06-20, 01:25:04,VALID,1010.14,VALID,0,VALID,104,VALID,0,VALID,23.6161,VALID,320,VALID,0,
2012-06-20, 01:26:04,VALID,1010.14,VALID,0,VALID,104,VALID,0,VALID,23.6356,VALID,320,VALID,0,
2012-06-20, 01:27:04,VALID,1010.11,VALID,0,VALID,104,VALID,0,VALID,23.6373,VALID,320,VALID,0,
2012-06-20, 01:28:04,VALID,1010.06,VALID,0,VALID,104,VALID,0,VALID,23.6161,VALID,320,VALID,0,
2012-06-20, 01:29:04,VALID,1010.06,VALID,0,VALID,104,VALID,0,VALID,23.6373,VALID,320,VALID,0,
2012-06-20, 01:30:04,VALID,1010.06,VALID,0,VALID,104,VALID,0,VALID,23.6356,VALID,320,VALID,0,
2012-06-20, 01:31:04,VALID,1010.05,VALID,0,VALID,104,VALID,0,VALID,23.6356,VALID,320,VALID,0,
2012-06-20, 01:32:04,VALID,1010.04,VALID,0,VALID,104,VALID,0,VALID,23.655,VALID,320,VALID,0,
2012-06-20, 01:33:04,VALID,1010.05,VALID,0,VALID,104,VALID,0,VALID,23.655,VALID,320,VALID,0,
2012-06-20, 01:34:04,VALID,1010.03,VALID,0,VALID,104,VALID,0,VALID,23.6356,VALID,320,VALID,0,
2012-06-20, 01:35:04,VALID,1010.07,VALID,0,VALID,104,VALID,0,VALID,23.6161,VALID,320,VALID,0,
2012-06-20, 01:36:04,VALID,1010.05,VALID,0,VALID,104,VALID,0,VALID,23.6161,VALID,320,VALID,0,
2012-06-20, 01:37:04,VALID,1010.03,VALID,0,VALID,104,VALID,0,VALID,23.6161,VALID,320,VALID,0,
2012-06-20, 01:38:04,VALID,1010.03,VALID,0,VALID,104,VALID,0,VALID,23.6356,VALID,320,VALID,0,
2012-06-20, 01:39:04,VALID,1009.99,VALID,0,VALID,104,VALID,0,VALID,23.655,VALID,320,VALID,0,
2012-06-20, 01:40:04,VALID,1010.01,VALID,0,VALID,104,VALID,0,VALID,23.6356,VALID,320,VALID,0,
2012-06-20, 01:41:04,VALID,1010.01,VALID,0,VALID,104,VALID,0,VALID,23.6745,VALID,320,VALID,0,
2012-06-20, 01:42:04,VALID,1010.01,VALID,0,VALID,104,VALID,0,VALID,23.6958,VALID,320,VALID,0,
2012-06-20, 01:43:04,VALID,1009.97,VALID,0,VALID,104,VALID,0,VALID,23.7153,VALID,320,VALID,0,
2012-06-20, 01:44:04,VALID,1009.99,VALID,0,VALID,104,VALID,0,VALID,23.7348,VALID,320,VALID,0,
2012-06-20, 01:45:04,VALID,1009.95,VALID,0,VALID,104,VALID,0,VALID,23.7525,VALID,320,VALID,0,
2012-06-20, 01:46:04,VALID,1009.96,VALID,0,VALID,104,VALID,0,VALID,23.7525,VALID,320,VALID,0,
2012-06-20, 01:47:04,VALID,1009.93,VALID,0,VALID,104,VALID,0,VALID,23.772,VALID,320,VALID,0,
2012-06-20, 01:48:04,VALID,1009.91,VALID,0,VALID,104,VALID,0,VALID,23.7914,VALID,320,VALID,0,
2012-06-20, 01:49:04,VALID,1009.89,VALID,0,VALID,104,VALID,0,VALID,23.8109,VALID,320,VALID,0,
2012-06-20, 01:50:04,VALID,1009.88,VALID,0,VALID,104,VALID,0,VALID,23.8304,VALID,320,VALID,0,
2012-06-20, 01:51:04,VALID,1009.89,VALID,0,VALID,104,VALID,0,VALID,23.8304,VALID,320,VALID,0,
2012-06-20, 01:52:04,VALID,1009.84,VALID,0,VALID,104,VALID,0,VALID,23.8304,VALID,320,VALID,0,
2012-06-20, 01:53:04,VALID,1009.86,VALID,0,VALID,104,VALID,0,VALID,23.8499,VALID,320,VALID,0,
2012-06-20, 01:54:04,VALID,1009.84,VALID,0,VALID,104,VALID,0,VALID,23.8304,VALID,320,VALID,0,
2012-06-20, 01:55:04,VALID,1009.85,VALID,0,VALID,104,VALID,0,VALID,23.8304,VALID,320,VALID,0,
2012-06-20, 01:56:04,VALID,1009.82,VALID,0,VALID,104,VALID,0,VALID,23.8499,VALID,320,VALID,0,
2012-06-20, 01:57:04,VALID,1009.84,VALID,0,VALID,104,VALID,0,VALID,23.8694,VALID,320,VALID,0,
2012-06-20, 01:58:04,VALID,1009.84,VALID,0,VALID,104,VALID,0,VALID,23.8694,VALID,320,VALID,0,
2012-06-20, 01:59:04,VALID,1009.84,VALID,0,VALID,104,VALID,0,VALID,23.8499,VALID,320,VALID,0,
2012-06-20, 02:00:04,VALID,1009.82,VALID,0,VALID,104,VALID,0,VALID,23.8517,VALID,320,VALID,0,
2012-06-20, 02:01:04,VALID,1009.8,VALID,0,VALID,104,VALID,0,VALID,23.8091,VALID,320,VALID,0,
2012-06-20, 02:02:04,VALID,1009.79,VALID,0,VALID,104,VALID,0,VALID,23.8127,VALID,320,VALID,0,
2012-06-20, 02:03:04,VALID,1009.81,VALID,0,VALID,104,VALID,0,VALID,23.8712,VALID,320,VALID,0,
2012-06-20, 02:04:04,VALID,1009.75,VALID,0,VALID,104,VALID,0,VALID,23.8907,VALID,320,VALID,0,
2012-06-20, 02:05:04,VALID,1009.8,VALID,0,VALID,104,VALID,0,VALID,23.8694,VALID,320,VALID,0,
2012-06-20, 02:06:04,VALID,1009.78,VALID,0,VALID,104,VALID,0,VALID,23.8889,VALID,320,VALID,0,
2012-06-20, 02:07:04,VALID,1009.79,VALID,0,VALID,104,VALID,0,VALID,23.9102,VALID,320,VALID,0,
2012-06-20, 02:08:04,VALID,1009.8,VALID,0,VALID,104,VALID,0,VALID,23.8889,VALID,320,VALID,0,
2012-06-20, 02:09:04,VALID,1009.8,VALID,0,VALID,104,VALID,0.112112,VALID,23.9278,VALID,320,VALID,0,
2012-06-20, 02:10:04,VALID,1009.79,VALID,0,VALID,104,VALID,0.112112,VALID,23.926,VALID,320,VALID,0,
2012-06-20, 02:11:04,VALID,1009.79,VALID,0,VALID,104,VALID,0.112112,VALID,23.9668,VALID,320,VALID,0,
2012-06-20, 02:12:04,VALID,1009.8,VALID,0,VALID,104,VALID,0.112112,VALID,23.9455,VALID,320,VALID,0,
2012-06-20, 02:13:04,VALID,1009.77,VALID,0,VALID,104,VALID,0.112112,VALID,23.9863,VALID,320,VALID,0,
2012-06-20, 02:14:04,VALID,1009.73,VALID,0,VALID,104,VALID,0.112112,VALID,24.0058,VALID,320,VALID,0,
2012-06-20, 02:15:04,VALID,1009.73,VALID,0,VALID,104,VALID,0.112112,VALID,23.9455,VALID,320,VALID,0,
2012-06-20, 02:16:04,VALID,1009.71,VALID,0,VALID,104,VALID,0.112112,VALID,23.9065,VALID,320,VALID,0,
2012-06-20, 02:17:04,VALID,1009.67,VALID,0,VALID,104,VALID,0,VALID,23.9084,VALID,320,VALID,0,
2012-06-20, 02:18:04,VALID,1009.68,VALID,0,VALID,104,VALID,0.112112,VALID,23.8889,VALID,320,VALID,0,
2012-06-20, 02:19:04,VALID,1009.65,VALID,0,VALID,104,VALID,0.112112,VALID,23.8871,VALID,320,VALID,0,
2012-06-20, 02:20:04,VALID,1009.66,VALID,0,VALID,104,VALID,0.112112,VALID,23.9084,VALID,320,VALID,0,
2012-06-20, 02:21:04,VALID,1009.65,VALID,0,VALID,104,VALID,0.112112,VALID,23.926,VALID,320,VALID,0,
2012-06-20, 02:22:04,VALID,1009.63,VALID,0,VALID,104,VALID,0.112112,VALID,23.9473,VALID,320,VALID,0,
2012-06-20, 02:23:04,VALID,1009.61,VALID,0,VALID,104,VALID,0.112112,VALID,23.8871,VALID,320,VALID,0,
2012-06-20, 02:24:04,VALID,1009.63,VALID,0,VALID,104,VALID,0.112112,VALID,23.8499,VALID,320,VALID,0,
2012-06-20, 02:25:04,VALID,1009.6,VALID,0,VALID,104,VALID,0.112112,VALID,23.8304,VALID,320,VALID,0,
2012-06-20, 02:26:04,VALID,1009.62,VALID,0,VALID,104,VALID,0.112112,VALID,23.7507,VALID,320,VALID,0,
2012-06-20, 02:27:04,VALID,1009.64,VALID,0,VALID,104,VALID,0.112112,VALID,23.733,VALID,320,VALID,0,
2012-06-20, 02:28:04,VALID,1009.63,VALID,0,VALID,104,VALID,0.112112,VALID,23.6532,VALID,320,VALID,0,
2012-06-20, 02:29:04,VALID,1009.62,VALID,0,VALID,104,VALID,0.112112,VALID,23.6532,VALID,320,VALID,0,
2012-06-20, 02:30:04,VALID,1009.58,VALID,0,VALID,104,VALID,0,VALID,23.655,VALID,320,VALID,0,
2012-06-20, 02:31:04,VALID,1009.58,VALID,0,VALID,104,VALID,0.112112,VALID,23.6338,VALID,320,VALID,0,
2012-06-20, 02:32:04,VALID,1009.59,VALID,0,VALID,104,VALID,0.112112,VALID,23.6338,VALID,320,VALID,0,
2012-06-20, 02:33:04,VALID,1009.59,VALID,0,VALID,104,VALID,0.112112,VALID,23.6338,VALID,320,VALID,0,
2012-06-20, 02:34:04,VALID,1009.57,VALID,0,VALID,104,VALID,0,VALID,23.6745,VALID,320,VALID,0,
2012-06-20, 02:35:04,VALID,1009.57,VALID,0,VALID,104,VALID,0,VALID,23.6727,VALID,320,VALID,0,
2012-06-20, 02:36:04,VALID,1009.54,VALID,0,VALID,104,VALID,0.112112,VALID,23.7135,VALID,320,VALID,0,
2012-06-20, 02:37:04,VALID,1009.53,VALID,0,VALID,104,VALID,0.112112,VALID,23.7135,VALID,320,VALID,0,
2012-06-20, 02:38:04,VALID,1009.52,VALID,0,VALID,104,VALID,0.112112,VALID,23.6532,VALID,320,VALID,0,
2012-06-20, 02:39:04,VALID,1009.48,VALID,0,VALID,104,VALID,0,VALID,23.6568,VALID,320,VALID,0,
2012-06-20, 02:40:04,VALID,1009.46,VALID,0,VALID,104,VALID,0,VALID,23.6356,VALID,320,VALID,0,
2012-06-20, 02:41:04,VALID,1009.45,VALID,0,VALID,104,VALID,0,VALID,23.6161,VALID,320,VALID,0,
2012-06-20, 02:42:04,VALID,1009.42,VALID,0,VALID,104,VALID,0,VALID,23.6161,VALID,320,VALID,0,
2012-06-20, 02:43:04,VALID,1009.43,VALID,0,VALID,104,VALID,0,VALID,23.5771,VALID,320,VALID,0,
2012-06-20, 02:44:04,VALID,1009.43,VALID,0,VALID,104,VALID,0,VALID,23.5381,VALID,320,VALID,0,
2012-06-20, 02:45:04,VALID,1009.41,VALID,0,VALID,104,VALID,0,VALID,23.5399,VALID,320,VALID,0,
2012-06-20, 02:46:04,VALID,1009.42,VALID,0,VALID,104,VALID,0,VALID,23.5186,VALID,320,VALID,0,
2012-06-20, 02:47:04,VALID,1009.46,VALID,0,VALID,104,VALID,0,VALID,23.5984,VALID,320,VALID,0,
2012-06-20, 02:48:04,VALID,1009.46,VALID,0,VALID,104,VALID,0,VALID,23.6179,VALID,320,VALID,0,
2012-06-20, 02:49:04,VALID,1009.46,VALID,0,VALID,104,VALID,0,VALID,23.6161,VALID,320,VALID,0,
2012-06-20, 02:50:04,VALID,1009.5,VALID,0,VALID,104,VALID,0,VALID,23.6373,VALID,320,VALID,0,
2012-06-20, 02:51:04,VALID,1009.51,VALID,0,VALID,104,VALID,0,VALID,23.5966,VALID,320,VALID,0,
2012-06-20, 02:52:04,VALID,1009.53,VALID,0,VALID,104,VALID,0,VALID,23.5966,VALID,320,VALID,0,
2012-06-20, 02:53:04,VALID,1009.52,VALID,0,VALID,104,VALID,0,VALID,23.5966,VALID,320,VALID,0,
2012-06-20, 02:54:04,VALID,1009.55,VALID,0,VALID,104,VALID,0,VALID,23.5966,VALID,320,VALID,0,
2012-06-20, 02:55:04,VALID,1009.51,VALID,0,VALID,104,VALID,0,VALID,23.5984,VALID,320,VALID,0,
2012-06-20, 02:56:04,VALID,1009.47,VALID,0,VALID,104,VALID,0,VALID,23.5771,VALID,320,VALID,0,
2012-06-20, 02:57:04,VALID,1009.49,VALID,0,VALID,104,VALID,0,VALID,23.5966,VALID,320,VALID,0,
2012-06-20, 02:58:04,VALID,1009.49,VALID,0,VALID,104,VALID,0,VALID,23.5984,VALID,320,VALID,0,
2012-06-20, 02:59:04,VALID,1009.5,VALID,0,VALID,104,VALID,0,VALID,23.5984,VALID,320,VALID,0,
2012-06-20, 03:00:04,VALID,1009.49,VALID,0,VALID,104,VALID,0,VALID,23.5984,VALID,320,VALID,0,
2012-06-20, 03:01:04,VALID,1009.51,VALID,0,VALID,104,VALID,0,VALID,23.5381,VALID,320,VALID,0,
2012-06-20, 03:02:04,VALID,1009.5,VALID,0,VALID,104,VALID,0,VALID,23.5381,VALID,320,VALID,0,
2012-06-20, 03:03:04,VALID,1009.51,VALID,0,VALID,104,VALID,0,VALID,23.5186,VALID,320,VALID,0,
2012-06-20, 03:04:04,VALID,1009.53,VALID,0,VALID,104,VALID,0,VALID,23.5381,VALID,320,VALID,0,
2012-06-20, 03:05:04,VALID,1009.51,VALID,0,VALID,104,VALID,0,VALID,23.5789,VALID,320,VALID,0,
2012-06-20, 03:06:04,VALID,1009.49,VALID,0,VALID,104,VALID,0,VALID,23.5381,VALID,320,VALID,0,
2012-06-20, 03:07:04,VALID,1009.49,VALID,0,VALID,104,VALID,0,VALID,23.5186,VALID,320,VALID,0,
2012-06-20, 03:08:04,VALID,1009.49,VALID,0,VALID,104,VALID,0,VALID,23.5186,VALID,320,VALID,0,
2012-06-20, 03:09:04,VALID,1009.46,VALID,0,VALID,104,VALID,0,VALID,23.4974,VALID,320,VALID,0,
2012-06-20, 03:10:04,VALID,1009.49,VALID,0,VALID,104,VALID,0.112112,VALID,23.5186,VALID,320,VALID,0,
2012-06-20, 03:11:04,VALID,1009.46,VALID,0,VALID,104,VALID,0.112112,VALID,23.4761,VALID,320,VALID,0,
2012-06-20, 03:12:04,VALID,1009.5,VALID,0,VALID,104,VALID,0.112112,VALID,23.4992,VALID,320,VALID,0,
2012-06-20, 03:13:04,VALID,1009.49,VALID,0,VALID,104,VALID,0,VALID,23.4584,VALID,320,VALID,0,
2012-06-20, 03:14:04,VALID,1009.53,VALID,0,VALID,104,VALID,0.112112,VALID,23.4584,VALID,320,VALID,0,
2012-06-20, 03:15:04,VALID,1009.49,VALID,0,VALID,104,VALID,0.112112,VALID,23.4584,VALID,320,VALID,0,
2012-06-20, 03:16:04,VALID,1009.47,VALID,0,VALID,104,VALID,0,VALID,23.4389,VALID,320,VALID,0,
2012-06-20, 03:17:04,VALID,1009.47,VALID,0,VALID,104,VALID,0,VALID,23.4194,VALID,320,VALID,0,
2012-06-20, 03:18:04,VALID,1009.43,VALID,0,VALID,104,VALID,0.112112,VALID,23.4212,VALID,320,VALID,0,
2012-06-20, 03:19:04,VALID,1009.44,VALID,0,VALID,104,VALID,0.112112,VALID,23.4407,VALID,320,VALID,0,
2012-06-20, 03:20:04,VALID,1009.42,VALID,0,VALID,104,VALID,0,VALID,23.4212,VALID,320,VALID,0,
2012-06-20, 03:21:04,VALID,1009.39,VALID,0,VALID,104,VALID,0.112112,VALID,23.361,VALID,320,VALID,0,
2012-06-20, 03:22:04,VALID,1009.4,VALID,0,VALID,104,VALID,0,VALID,23.3415,VALID,320,VALID,0,
2012-06-20, 03:23:04,VALID,1009.38,VALID,0,VALID,104,VALID,0,VALID,23.3415,VALID,320,VALID,0,
2012-06-20, 03:24:04,VALID,1009.39,VALID,0,VALID,104,VALID,0.112112,VALID,23.322,VALID,320,VALID,0,
2012-06-20, 03:25:04,VALID,1009.36,VALID,0,VALID,104,VALID,0,VALID,23.3628,VALID,320,VALID,0,
2012-06-20, 03:26:04,VALID,1009.36,VALID,0,VALID,104,VALID,0,VALID,23.3823,VALID,320,VALID,0,
2012-06-20, 03:27:04,VALID,1009.39,VALID,0,VALID,104,VALID,0,VALID,23.3805,VALID,320,VALID,0,
2012-06-20, 03:28:04,VALID,1009.41,VALID,0,VALID,104,VALID,0,VALID,23.4212,VALID,320,VALID,0,
2012-06-20, 03:29:04,VALID,1009.41,VALID,0,VALID,104,VALID,0.112112,VALID,23.4212,VALID,320,VALID,0,
2012-06-20, 03:30:04,VALID,1009.41,VALID,0,VALID,104,VALID,0.112112,VALID,23.4194,VALID,320,VALID,0,
2012-06-20, 03:31:04,VALID,1009.41,VALID,0,VALID,104,VALID,0,VALID,23.4407,VALID,320,VALID,0,
2012-06-20, 03:32:04,VALID,1009.4,VALID,0,VALID,104,VALID,0,VALID,23.4407,VALID,320,VALID,0,
2012-06-20, 03:33:04,VALID,1009.42,VALID,0,VALID,104,VALID,0,VALID,23.4407,VALID,320,VALID,0,
2012-06-20, 03:34:04,VALID,1009.39,VALID,0,VALID,104,VALID,0,VALID,23.4194,VALID,320,VALID,0,
2012-06-20, 03:35:04,VALID,1009.37,VALID,0,VALID,104,VALID,0,VALID,23.4389,VALID,320,VALID,0,
2012-06-20, 03:36:04,VALID,1009.37,VALID,0,VALID,104,VALID,0,VALID,23.4797,VALID,320,VALID,0,
2012-06-20, 03:37:04,VALID,1009.38,VALID,0,VALID,104,VALID,0,VALID,23.4797,VALID,320,VALID,0,
2012-06-20, 03:38:04,VALID,1009.39,VALID,0,VALID,104,VALID,0,VALID,23.4779,VALID,320,VALID,0,
2012-06-20, 03:39:04,VALID,1009.36,VALID,0,VALID,104,VALID,0,VALID,23.4602,VALID,320,VALID,0,
2012-06-20, 03:40:04,VALID,1009.36,VALID,0,VALID,104,VALID,0,VALID,23.4407,VALID,320,VALID,0,
2012-06-20, 03:41:04,VALID,1009.32,VALID,0,VALID,104,VALID,0,VALID,23.4212,VALID,320,VALID,0,
2012-06-20, 03:42:04,VALID,1009.32,VALID,0,VALID,104,VALID,0,VALID,23.4212,VALID,320,VALID,0,
2012-06-20, 03:43:04,VALID,1009.34,VALID,0,VALID,104,VALID,0,VALID,23.423,VALID,320,VALID,0,
2012-06-20, 03:44:04,VALID,1009.32,VALID,0,VALID,104,VALID,0,VALID,23.4407,VALID,320,VALID,0,
2012-06-20, 03:45:04,VALID,1009.33,VALID,0,VALID,104,VALID,0,VALID,23.4584,VALID,320,VALID,0,
2012-06-20, 03:46:04,VALID,1009.37,VALID,0,VALID,104,VALID,0.112112,VALID,23.4779,VALID,320,VALID,0,
2012-06-20, 03:47:04,VALID,1009.37,VALID,0,VALID,104,VALID,0.112112,VALID,23.4584,VALID,320,VALID,0,
2012-06-20, 03:48:04,VALID,1009.37,VALID,0,VALID,104,VALID,0.112112,VALID,23.4,VALID,320,VALID,0,
2012-06-20, 03:49:04,VALID,1009.41,VALID,0,VALID,104,VALID,0.112112,VALID,23.3805,VALID,320,VALID,0,
2012-06-20, 03:50:04,VALID,1009.42,VALID,0,VALID,104,VALID,0.112112,VALID,23.4194,VALID,320,VALID,0,
2012-06-20, 03:51:04,VALID,1009.46,VALID,0,VALID,104,VALID,0.112112,VALID,23.4194,VALID,320,VALID,0,
2012-06-20, 03:52:04,VALID,1009.46,VALID,0,VALID,104,VALID,0.112112,VALID,23.4,VALID,320,VALID,0,
2012-06-20, 03:53:04,VALID,1009.45,VALID,0,VALID,104,VALID,0.112112,VALID,23.3805,VALID,320,VALID,0,
2012-06-20, 03:54:04,VALID,1009.49,VALID,0,VALID,104,VALID,0.112112,VALID,23.3415,VALID,320,VALID,0,
2012-06-20, 03:55:04,VALID,1009.5,VALID,0,VALID,104,VALID,0,VALID,23.3823,VALID,320,VALID,0,
2012-06-20, 03:56:04,VALID,1009.51,VALID,0,VALID,104,VALID,0.112112,VALID,23.3805,VALID,320,VALID,0,
2012-06-20, 03:57:04,VALID,1009.5,VALID,0,VALID,104,VALID,0.112112,VALID,23.4,VALID,320,VALID,0,
2012-06-20, 03:58:04,VALID,1009.54,VALID,0,VALID,104,VALID,0.112112,VALID,23.4389,VALID,320,VALID,0.1875,
2012-06-20, 03:59:04,VALID,1009.53,VALID,0,VALID,104,VALID,0.112112,VALID,23.4584,VALID,320,VALID,0.172266,
2012-06-20, 04:00:04,VALID,1009.56,VALID,0,VALID,104,VALID,0.112112,VALID,23.4974,VALID,320,VALID,0,
2012-06-20, 04:01:04,VALID,1009.56,VALID,0,VALID,104,VALID,0,VALID,23.4974,VALID,320,VALID,0,
2012-06-20, 04:02:04,VALID,1009.58,VALID,0,VALID,104,VALID,0.112112,VALID,23.4779,VALID,320,VALID,0,
2012-06-20, 04:03:04,VALID,1009.58,VALID,0,VALID,104,VALID,0.112112,VALID,23.4584,VALID,320,VALID,0,
2012-06-20, 04:04:04,VALID,1009.58,VALID,0,VALID,104,VALID,0,VALID,23.4212,VALID,320,VALID,0,
2012-06-20, 04:05:04,VALID,1009.6,VALID,0,VALID,104,VALID,0,VALID,23.3628,VALID,320,VALID,0,